timestamp,surface_pressure_avg,surface_temp_avg,battery_voltage,lat,long
2021-05-21 00:09:00+00:00,196.1799,7.09,13.21,47.84626,-54.09684
2021-05-21 00:19:01+00:00,196.0981,7.1,12.81,47.84626,-54.09684
2021-05-21 00:29:01+00:00,197.2848,7.1,12.81,47.84626,-54.09684
2021-05-21 00:39:01+00:00,196.6431,7.1,12.81,47.84626,-54.09684
2021-05-21 00:49:01+00:00,195.7231,7.09,12.81,47.84626,-54.09684
2021-05-21 00:59:01+00:00,198.7281,7.09,12.81,47.84626,-54.09684
2021-05-21 01:09:01+00:00,200.0114,7.1,12.81,47.84626,-54.09684
2021-05-21 01:19:01+00:00,199.0398,7.1,12.65,47.84626,-54.09684
2021-05-21 01:29:01+00:00,199.9831,7.1,12.65,47.84626,-54.09684
2021-05-21 01:39:01+00:00,205.4331,7.1,12.65,47.84626,-54.09684
2021-05-21 01:49:01+00:00,209.8248,7.1,12.65,47.84626,-54.09684
2021-05-21 01:59:01+00:00,207.1431,7.19,12.65,47.84626,-54.09684
2021-05-21 02:09:01+00:00,205.9398,7.21,12.65,47.84626,-54.09684
2021-05-21 02:19:01+00:00,209.4948,7.28,12.65,47.84626,-54.09684
2021-05-21 02:29:01+00:00,212.9431,7.3,12.65,47.84626,-54.09684
2021-05-21 02:39:01+00:00,216.3297,7.3,12.65,47.84626,-54.09684
2021-05-21 02:49:01+00:00,219.5648,7.3,12.65,47.84626,-54.09684
2021-05-21 02:59:01+00:00,220.4364,7.3,12.65,47.84626,-54.09684
2021-05-21 03:09:01+00:00,223.7765,7.3,12.65,47.84626,-54.09684
2021-05-21 03:19:00+00:00,227.2997,7.3,12.65,47.84626,-54.09684
2021-05-21 03:29:00+00:00,231.7148,7.3,12.65,47.84626,-54.09684
2021-05-21 03:39:00+00:00,236.3497,7.3,12.65,47.84626,-54.09684
2021-05-21 03:49:00+00:00,240.9381,7.3,12.65,47.84626,-54.09684
2021-05-21 03:59:00+00:00,245.4998,7.32,12.65,47.84626,-54.09684
2021-05-21 04:09:00+00:00,249.3598,7.34,12.65,47.84626,-54.09684
2021-05-21 04:19:00+00:00,254.1081,7.37,12.65,47.84626,-54.09684
2021-05-21 04:29:00+00:00,258.8514,7.39,12.65,47.84626,-54.09684
2021-05-21 04:39:00+00:00,264.1847,7.39,12.65,47.84626,-54.09684
2021-05-21 04:49:00+00:00,267.4514,7.37,12.65,47.84626,-54.09684
2021-05-21 04:59:00+00:00,271.438,7.37,12.65,47.84626,-54.09684
2021-05-21 05:09:00+00:00,275.4297,7.36,12.65,47.84626,-54.09684
2021-05-21 05:19:01+00:00,278.8831,7.35,12.65,47.84626,-54.09684
2021-05-21 05:29:01+00:00,279.7313,7.34,12.65,47.84626,-54.09684
2021-05-21 05:39:01+00:00,284.783,7.35,12.65,47.84626,-54.09684
2021-05-21 05:49:01+00:00,291.3748,7.36,12.65,47.84626,-54.09684
2021-05-21 05:59:01+00:00,294.4797,7.37,12.65,47.84626,-54.09684
2021-05-21 06:09:01+00:00,296.2596,7.38,12.65,47.84626,-54.09684
2021-05-21 06:19:00+00:00,296.9114,7.39,12.57,47.84626,-54.09684
2021-05-21 06:29:00+00:00,295.1614,7.4,12.57,47.84626,-54.09684
2021-05-21 06:39:00+00:00,297.9714,7.4,12.57,47.84626,-54.09684
2021-05-21 06:49:00+00:00,302.2163,7.32,12.57,47.84626,-54.09684
2021-05-21 06:59:00+00:00,300.903,7.3,12.57,47.84626,-54.09684
2021-05-21 07:09:00+00:00,297.8514,7.3,12.57,47.84626,-54.09684
2021-05-21 07:19:01+00:00,300.7498,7.3,12.57,47.84626,-54.09684
2021-05-21 07:29:01+00:00,301.4097,7.27,12.57,47.84626,-54.09684
2021-05-21 07:39:01+00:00,298.428,7.25,12.57,47.84626,-54.09684
2021-05-21 07:49:01+00:00,296.4097,7.23,12.57,47.84626,-54.09684
2021-05-21 07:59:01+00:00,296.168,7.2,12.57,47.84626,-54.09684
2021-05-21 08:09:01+00:00,293.4046,7.2,12.57,47.84626,-54.09684
2021-05-21 08:19:00+00:00,288.1397,7.2,12.57,47.84626,-54.09684
2021-05-21 08:29:00+00:00,282.3647,7.19,12.57,47.84626,-54.09684
2021-05-21 08:39:00+00:00,278.8615,7.15,12.57,47.84626,-54.09684
2021-05-21 08:49:00+00:00,275.8798,7.11,12.57,47.84626,-54.09684
2021-05-21 08:59:00+00:00,271.0814,7.13,12.57,47.84626,-54.09684
2021-05-21 09:09:00+00:00,267.6148,7.13,12.57,47.84626,-54.09684
2021-05-21 09:19:01+00:00,264.0331,7.13,12.57,47.84626,-54.09684
2021-05-21 09:29:01+00:00,259.4397,7.12,12.57,47.84626,-54.09684
2021-05-21 09:39:01+00:00,252.1381,7.12,12.57,47.84626,-54.09684
2021-05-21 09:49:01+00:00,247.9464,7.13,12.57,47.84626,-54.09684
2021-05-21 09:59:01+00:00,245.9131,7.14,12.57,47.84626,-54.09684
2021-05-21 10:09:01+00:00,240.923,7.14,12.57,47.84626,-54.09684
2021-05-21 10:19:00+00:00,232.2764,7.16,12.81,47.84626,-54.09684
2021-05-21 10:29:00+00:00,226.9414,7.17,12.81,47.84626,-54.09684
2021-05-21 10:39:00+00:00,222.7681,7.18,12.81,47.84626,-54.09684
2021-05-21 10:49:00+00:00,218.3665,7.18,12.81,47.84626,-54.09684
2021-05-21 10:59:00+00:00,214.4164,7.18,12.81,47.84626,-54.09684
2021-05-21 11:09:00+00:00,211.0331,7.17,12.81,47.84626,-54.09684
2021-05-21 11:19:00+00:00,206.7114,7.15,13.68,47.84626,-54.09684
2021-05-21 11:29:00+00:00,202.4364,7.13,13.68,47.84626,-54.09684
2021-05-21 11:39:00+00:00,201.0948,7.13,13.68,47.84626,-54.09684
2021-05-21 11:49:00+00:00,200.5198,7.12,13.68,47.84626,-54.09684
2021-05-21 11:59:00+00:00,199.7948,7.11,13.68,47.84626,-54.09684
2021-05-21 12:09:00+00:00,195.3831,7.1,13.68,47.84626,-54.09684
2021-05-21 12:19:00+00:00,191.5331,7.1,14.48,47.84626,-54.09684
2021-05-21 12:29:00+00:00,191.6981,7.1,14.48,47.84626,-54.09684
2021-05-21 12:39:00+00:00,189.5081,7.1,14.48,47.84626,-54.09684
2021-05-21 12:49:00+00:00,187.2581,7.1,14.48,47.84626,-54.09684
2021-05-21 12:59:00+00:00,187.6131,7.1,14.48,47.84626,-54.09684
2021-05-21 13:09:00+00:00,188.4015,7.1,14.48,47.84626,-54.09684
2021-05-21 13:19:01+00:00,189.4698,7.1,14.48,47.84626,-54.09684
2021-05-21 13:29:01+00:00,192.1848,7.1,14.48,47.84626,-54.09684
2021-05-21 13:39:01+00:00,195.0998,7.1,14.48,47.84626,-54.09684
2021-05-21 13:49:01+00:00,193.3298,7.12,14.48,47.84626,-54.09684
2021-05-21 13:59:01+00:00,190.4015,7.19,14.48,47.84626,-54.09684
2021-05-21 14:09:01+00:00,193.4632,7.2,14.48,47.84626,-54.09684
2021-05-21 14:19:01+00:00,197.0798,7.2,14.48,47.84626,-54.09684
2021-05-21 14:29:01+00:00,196.0998,7.2,14.48,47.84626,-54.09684
2021-05-21 14:39:01+00:00,196.8048,7.22,14.48,47.84626,-54.09684
2021-05-21 14:49:01+00:00,200.3765,7.26,14.48,47.84626,-54.09684
2021-05-21 14:59:01+00:00,202.8565,7.29,14.48,47.84626,-54.09684
2021-05-21 15:09:01+00:00,203.7298,7.34,14.48,47.84626,-54.09684
2021-05-21 15:19:01+00:00,209.8548,7.4,14.32,47.84626,-54.09684
2021-05-21 15:29:01+00:00,219.3731,7.37,14.32,47.84626,-54.09684
2021-05-21 15:39:01+00:00,220.9131,7.37,14.32,47.84626,-54.09684
2021-05-21 15:49:01+00:00,223.3965,7.4,14.32,47.84626,-54.09684
2021-05-21 15:59:01+00:00,233.0214,7.4,14.32,47.84626,-54.09684
2021-05-21 16:09:01+00:00,238.1464,7.4,14.32,47.84626,-54.09684
2021-05-21 16:19:01+00:00,238.4614,7.42,14.24,47.84626,-54.09684
2021-05-21 16:29:01+00:00,243.3814,7.48,14.24,47.84626,-54.09684
2021-05-21 16:39:01+00:00,251.9664,7.5,14.24,47.84626,-54.09684
2021-05-21 16:49:01+00:00,257.983,7.5,14.24,47.84626,-54.09684
2021-05-21 16:59:01+00:00,262.0831,7.5,14.24,47.84626,-54.09684
2021-05-21 17:09:01+00:00,268.6781,7.5,14.24,47.84626,-54.09684
2021-05-21 17:19:01+00:00,274.4464,7.5,14.16,47.84626,-54.09684
2021-05-21 17:29:01+00:00,279.6164,7.5,14.16,47.84626,-54.09684
2021-05-21 17:39:01+00:00,283.7181,7.47,14.16,47.84626,-54.09684
2021-05-21 17:49:01+00:00,289.548,7.49,14.16,47.84626,-54.09684
2021-05-21 17:59:01+00:00,292.6164,7.49,14.16,47.84626,-54.09684
2021-05-21 18:09:01+00:00,293.1847,7.49,14.16,47.84626,-54.09684
2021-05-21 18:19:01+00:00,296.6764,7.49,13.92,47.84626,-54.09684
2021-05-21 18:29:01+00:00,302.2196,7.49,13.92,47.84626,-54.09684
2021-05-21 18:39:01+00:00,303.263,7.49,13.92,47.84626,-54.09684
2021-05-21 18:49:01+00:00,304.1397,7.5,13.92,47.84626,-54.09684
2021-05-21 18:59:01+00:00,308.1564,7.5,13.92,47.84626,-54.09684
2021-05-21 19:09:01+00:00,311.70799999999997,7.5,13.92,47.84626,-54.09684
2021-05-21 19:19:01+00:00,310.7479,7.51,14.0,47.84626,-54.09684
2021-05-21 19:29:01+00:00,310.563,7.58,14.0,47.84626,-54.09684
2021-05-21 19:39:01+00:00,312.468,7.6,14.0,47.84626,-54.09684
2021-05-21 19:49:01+00:00,308.7063,7.6,14.0,47.84626,-54.09684
2021-05-21 19:59:01+00:00,304.628,7.62,14.0,47.84626,-54.09684
2021-05-21 20:09:01+00:00,303.8746,7.67,14.0,47.84626,-54.09684
2021-05-21 20:19:01+00:00,300.8797,7.68,13.92,47.84626,-54.09684
2021-05-21 20:29:01+00:00,294.3047,7.7,13.92,47.84626,-54.09684
2021-05-21 20:39:01+00:00,291.9431,7.7,13.92,47.84626,-54.09684
2021-05-21 20:49:01+00:00,290.9347,7.7,13.92,47.84626,-54.09684
2021-05-21 20:59:01+00:00,287.698,7.7,13.92,47.84626,-54.09684
2021-05-21 21:09:01+00:00,283.2881,7.7,13.92,47.84626,-54.09684
2021-05-21 21:19:01+00:00,279.4664,7.7,13.68,47.84626,-54.09684
2021-05-21 21:29:01+00:00,274.4731,7.7,13.68,47.84626,-54.09684
2021-05-21 21:39:01+00:00,270.8331,7.7,13.68,47.84626,-54.09684
2021-05-21 21:49:01+00:00,268.7914,7.7,13.68,47.84626,-54.09684
2021-05-21 21:59:01+00:00,264.1598,7.7,13.68,47.84626,-54.09684
2021-05-21 22:09:01+00:00,260.4581,7.7,13.68,47.84626,-54.09684
2021-05-21 22:19:01+00:00,256.5031,7.7,13.44,47.84626,-54.09684
2021-05-21 22:29:01+00:00,253.2331,7.7,13.44,47.84626,-54.09684
2021-05-21 22:39:01+00:00,248.0964,7.7,13.44,47.84626,-54.09684
2021-05-21 22:49:01+00:00,242.8164,7.7,13.44,47.84626,-54.09684
2021-05-21 22:59:01+00:00,237.6081,7.7,13.44,47.84626,-54.09684
2021-05-21 23:09:01+00:00,233.3081,7.7,13.44,47.84626,-54.09684
2021-05-21 23:19:01+00:00,227.4481,7.7,13.13,47.84626,-54.09684
2021-05-21 23:29:01+00:00,222.2264,7.7,13.13,47.84626,-54.09684
2021-05-21 23:39:01+00:00,221.2731,7.7,13.13,47.84626,-54.09684
2021-05-21 23:49:01+00:00,218.3281,7.7,13.13,47.84626,-54.09684
2021-05-21 23:59:01+00:00,212.1931,7.83,13.13,47.84626,-54.09684
